Weather History for Buenos Aires, Argentina

Change the Weather History Date:

Monday, June 17, 2013

  Actual Average Record
Temperature  
Mean Temperature 49 °F -  
Max Temperature 55 °F 58 °F 64 °F (2008)
Min Temperature 43 °F 47 °F 41 °F (2000)
Degree Days  
Heating Degree Days 16    
Moisture  
Dew Point 41 °F    
Average Humidity 69    
Maximum Humidity 82    
Minimum Humidity 56    
Precipitation  
Precipitation 0.00 in 0.08 in - ()
Sea Level Pressure  
Sea Level Pressure 30.10 in    
Wind  
Wind Speed 6 mph ()    
Max Wind Speed 10 mph    
Max Gust Speed -    
Visibility 6.1 miles    
Events      
Averages and records for this station are not official NWS values.
T = Trace of Precipitation, MM = Missing Value Source: Averaged Metar Reports

Daily Weather History Graph

Daily Weather History Graph

Search for Another Location

Airport:

Trip Planner

Search our weather history database for the weather conditions in past years. The results will help you decide how hot, cold, wet, or windy it might be!

Date:

Astronomy

Jun. 17, 2013 Rise Set
Actual Time 7:59 AM ART 5:49 PM ART
Civil Twilight 7:31 AM ART 6:17 PM ART
Nautical Twilight 6:59 AM ART 6:49 PM ART
Astronomical Twilight 6:29 AM ART 7:20 PM ART
Moon 1:18 PM ART (6/17) 1:22 AM ART (6/17)
Length of Visible Light 10h 46m
Length of Day
9h 50m
First Quarter, 59% of the Moon is Illuminated
Jun 17
First Quarter
Jun 23
Full
Jun 30
Last Quarter
Jul 8
New
Jul 16
First Quarter

Hourly Weather History & Observations

Time (ART) Temp. Windchill Dew Point Humidity Pressure Visibility Wind Dir Wind Speed Gust Speed Precip Events Conditions
12:00 AM 49 °F - 43 °F 71% 30.13 in 6 mi SW 9.2 mph - -   Scattered Clouds
12:00 AM 48.2 °F - 42.8 °F 82% 30.12 in - SW 9.2 mph - N/A   Clear
1:00 AM 48.2 °F - 41.0 °F 76% 30.12 in - SSW 10.4 mph - N/A   Clear
2:00 AM 48.2 °F - 41.0 °F 76% 30.12 in - SSW 10.4 mph - N/A   Clear
3:00 AM 46 °F - 38 °F 65% 30.14 in 6 mi SSW 10.4 mph - -  
3:00 AM 46.4 °F 41.5 °F 37.4 °F 71% 30.12 in - SSW 10.4 mph - N/A   Clear
5:00 AM 44.6 °F 39.2 °F 35.6 °F 71% 30.12 in - South 10.4 mph - N/A   Clear
6:00 AM 45 °F - 35 °F 59% 30.13 in 6 mi South 6.9 mph - -  
6:00 AM 44.6 °F 40.7 °F 35.6 °F 71% 30.12 in - South 6.9 mph - N/A   Clear
7:00 AM 44.6 °F 40.7 °F 35.6 °F 71% 30.12 in - South 6.9 mph - N/A   Clear
8:00 AM 44.6 °F 43.1 °F 33.8 °F 66% 30.15 in - SSW 3.5 mph - N/A   Clear
9:00 AM 45 °F - 35 °F 59% 30.16 in 6 mi SSW 3.5 mph - -   Clear
9:00 AM 44.6 °F 43.1 °F 35.6 °F 71% 30.15 in - SSW 3.5 mph - N/A   Clear
10:00 AM 48.2 °F - 37.4 °F 66% 30.15 in - ESE 6.9 mph - N/A   Clear
11:00 AM 50.0 °F - 41.0 °F 71% 30.15 in - ESE 5.8 mph - N/A   Clear
12:00 PM 51 °F - 42 °F 61% 30.15 in 6 mi East 5.8 mph - -  
12:00 PM 50.0 °F - 41.0 °F 71% 30.12 in - East 5.8 mph - N/A   Clear
1:00 PM 53.6 °F - 44.6 °F 72% 30.12 in 6.2 mi ENE 4.6 mph - N/A   Partly Cloudy
2:00 PM 53.6 °F - 44.6 °F 72% 30.09 in 6.2 mi NE 3.5 mph - N/A   Partly Cloudy
3:00 PM 54 °F - 44 °F 59% 30.09 in 6 mi NE 3.5 mph - -   Scattered Clouds
3:00 PM 53.6 °F - 44.6 °F 72% 30.06 in 6.2 mi NE 3.5 mph - N/A   Partly Cloudy
4:00 PM 53.6 °F - 44.6 °F 72% 30.06 in 6.2 mi NE 3.5 mph - N/A   Partly Cloudy
5:00 PM 53.6 °F - 41.0 °F 62% 30.04 in - East 4.6 mph - N/A   Clear
6:00 PM 51 °F - 40 °F 56% 30.06 in 6 mi East 3.5 mph - -   Clear
6:00 PM 50.0 °F - 39.2 °F 66% 30.04 in - East 3.5 mph - N/A   Clear
7:00 PM 51.8 °F - 42.8 °F 71% 30.04 in - East 3.5 mph - N/A   Clear
8:00 PM 50.0 °F - 42.8 °F 76% 30.04 in - East 4.6 mph - N/A   Clear
9:00 PM 53 °F - 44 °F 63% 30.06 in 6 mi East 6.9 mph - -   Mostly Cloudy
9:00 PM 53.6 °F - 44.6 °F 72% 30.04 in - East 6.9 mph - N/A   Clear
10:00 PM 53.6 °F - 44.6 °F 72% 30.04 in 6.2 mi East 6.9 mph - N/A   Mostly Cloudy
11:00 PM 53.6 °F - 46.4 °F 77% 30.04 in 6.2 mi ENE 5.8 mph - N/A   Mostly Cloudy